GFSCGP_925_thetae_000.txt.gz
Theta_e
312 316 317 317 317 316 315 316 317 318 311 312 314 314 314 314 313 313 313 313 310 305 304 301 297 295 293 293 292 292 292 291 291 290 290 290 290 289 288 288 288 287 286 285
314 315 316 313 312 314 315 317 319 316 310 309 312 312 312 312 312 312 313 313 311 306 304 300 296 294 293 293 292 292 291 291 290 290 289 288 288 287 287 287 287 286 285 285
315 315 310 312 313 314 315 317 318 316 310 308 308 312 311 310 308 309 309 310 309 306 304 300 296 294 292 292 292 291 291 290 289 288 288 287 287 286 286 286 286 285 286 284
313 311 312 313 314 314 318 314 313 312 313 316 308 315 314 312 310 310 312 310 307 305 302 300 297 294 292 292 292 291 290 289 288 287 287 287 287 288 287 285 285 285 284 283
314 310 311 314 315 312 316 308 310 309 311 309 313 312 312 306 310 312 312 313 309 307 303 301 297 294 293 292 291 291 290 288 287 287 287 286 286 285 285 284 284 284 283 282
312 306 309 313 305 307 304 308 307 305 308 315 313 313 312 312 311 311 312 311 308 306 304 302 297 294 293 291 291 290 289 288 287 286 286 285 285 285 284 283 282 282 282 281
311 310 306 306 310 306 307 313 318 322 319 318 309 309 312 311 311 311 313 313 307 305 303 300 297 294 292 291 291 290 289 288 287 286 285 284 284 283 282 282 281 281 281 281
314 315 308 307 313 316 310 315 321 326 319 318 306 311 313 311 311 311 307 307 303 303 302 300 297 295 293 291 291 290 289 288 286 285 284 283 282 281 280 280 279 279 279 279
314 315 305 304 305 310 309 312 312 318 306 315 314 315 314 311 309 307 307 306 306 304 301 299 297 295 292 291 290 290 289 288 285 284 283 281 280 279 279 278 277 277 277 277
313 313 307 301 302 301 306 307 312 313 322 320 314 314 314 313 312 310 307 307 308 304 302 299 296 294 292 291 291 290 289 287 285 283 281 280 279 278 277 277 277 276 276 276
311 313 309 304 306 310 305 308 307 308 314 317 316 314 309 310 311 311 310 310 310 307 303 300 297 294 293 292 290 289 288 286 283 282 280 279 278 277 278 277 276 275 275 274
311 314 315 312 303 301 307 310 310 313 314 311 314 315 310 310 311 310 311 309 307 306 306 302 298 294 292 291 290 289 287 284 282 280 279 278 277 278 277 276 275 274 274 273
309 313 318 315 306 301 306 306 307 310 312 314 315 314 310 310 309 308 309 310 306 305 304 301 297 295 293 291 289 288 286 283 281 278 278 277 277 276 275 275 274 273 272 272
311 314 315 313 312 307 308 307 306 308 312 313 313 312 312 311 310 310 310 306 306 306 304 304 298 295 293 290 288 287 284 281 279 277 276 276 275 275 275 275 274 273 272 271
310 314 315 315 314 313 313 310 308 308 309 311 312 311 311 311 311 311 310 309 308 308 303 303 299 295 292 290 287 284 282 279 277 276 276 275 274 275 274 273 272 272 271 270
307 314 313 313 312 312 313 312 312 312 311 310 309 308 309 309 309 309 309 308 307 307 307 302 297 293 291 289 286 283 281 278 276 276 275 273 274 274 272 272 272 271 270 269
309 312 315 317 314 313 315 313 313 312 312 311 312 311 310 310 309 309 309 308 307 306 306 305 296 293 290 287 284 282 279 275 275 275 273 273 273 272 271 271 270 269 268 268
313 312 313 315 315 316 314 311 311 312 311 311 311 311 311 310 309 309 309 309 308 307 306 302 297 294 289 286 283 281 276 274 274 274 273 272 271 270 270 269 268 268 268 268
311 312 314 315 316 314 310 310 310 310 310 309 309 309 309 309 307 308 307 307 307 307 307 305 297 292 287 285 281 277 275 274 274 272 271 271 270 269 268 268 268 268 268 267
311 312 313 315 316 317 313 310 308 306 309 309 308 308 308 306 309 310 309 306 305 304 299 291 288 287 284 280 276 276 275 274 273 272 270 269 269 269 268 267 268 268 268 266
312 312 313 314 316 315 311 307 305 311 312 310 309 308 308 308 308 308 301 301 294 291 288 286 284 281 280 276 276 276 274 274 272 270 269 268 268 268 268 267 268 268 267 265
314 314 314 313 314 315 311 311 309 311 311 310 310 309 307 306 306 305 302 293 289 286 284 282 281 279 276 276 277 275 274 271 269 268 267 267 267 267 267 267 267 267 265 265
315 314 314 313 313 311 311 311 310 309 311 311 310 309 306 306 304 304 301 290 287 285 283 281 280 276 275 276 276 275 270 268 267 266 266 266 266 266 267 266 266 266 265 266
312 312 313 313 312 311 310 310 310 310 309 309 308 308 306 306 305 303 298 292 286 283 281 279 277 276 275 275 274 271 268 267 266 266 265 265 265 265 265 265 265 265 266 267
306 305 308 308 307 309 311 311 310 309 307 305 305 304 305 305 303 302 300 294 288 284 281 278 278 276 274 273 269 268 267 268 266 266 265 265 265 264 264 264 265 265 266 267
300 304 307 309 308 308 309 309 307 307 308 308 307 306 305 303 303 302 299 296 288 283 280 278 277 274 272 270 268 266 266 267 266 265 265 265 264 264 263 264 264 264 265 266

GFSCGP_925_thetae_003.txt.gz
Theta_e
316 317 317 318 318 319 318 318 317 317 318 316 317 316 317 317 316 316 316 316 315 315 315 309 307 305 302 299 298 297 296 295 294 293 293 292 292 292 291 290 289 289 288 288
316 315 316 316 316 316 317 317 317 318 319 314 316 316 316 316 316 316 315 315 314 315 314 309 307 304 301 298 297 296 295 295 294 293 293 293 292 292 291 290 289 288 288 288
316 316 314 315 317 316 316 317 318 318 319 315 315 316 316 316 314 314 313 313 313 313 313 309 306 303 300 298 297 296 295 294 293 293 292 290 289 289 289 289 289 288 287 286
315 315 315 315 315 315 317 317 318 318 318 319 314 318 317 316 315 314 312 314 315 312 310 308 305 302 300 298 296 296 295 294 293 291 290 289 290 291 291 291 289 288 286 286
314 315 313 315 315 316 317 312 315 316 317 319 317 317 316 312 313 313 313 315 316 313 310 307 305 301 299 297 296 295 294 293 292 291 290 289 290 290 290 288 287 287 286 285
312 309 312 315 309 312 310 312 312 312 314 319 316 318 317 316 314 314 314 314 315 312 309 307 304 301 299 297 295 295 294 293 291 290 289 289 290 289 288 287 287 287 286 285
315 313 311 309 312 309 311 315 318 323 323 321 317 316 317 316 314 314 314 314 315 311 309 308 305 302 299 297 295 294 294 292 291 289 289 289 289 289 288 287 287 286 285 284
315 316 312 309 313 316 312 316 320 327 320 320 314 317 316 316 315 313 313 313 312 310 309 308 306 302 299 297 295 294 293 293 291 289 289 288 288 287 287 286 285 284 283 283
314 314 308 310 309 314 313 314 315 321 321 321 317 317 318 318 314 313 312 311 311 309 309 307 305 302 299 297 295 294 293 293 290 289 288 288 287 286 285 284 283 282 281 281
313 315 313 304 305 307 310 311 316 316 324 321 316 317 317 317 315 314 313 312 313 310 309 307 305 302 299 297 294 294 293 292 290 289 288 286 285 284 283 282 281 280 280 279
312 315 312 306 308 311 308 310 310 310 317 319 319 317 313 315 314 313 314 313 314 312 310 308 304 302 299 297 295 294 293 292 290 288 287 285 283 282 281 280 280 279 279 278
312 314 315 314 312 309 311 311 312 314 315 314 315 316 313 314 314 312 312 313 313 313 312 310 307 302 299 297 295 294 293 292 290 287 285 283 282 280 279 279 279 279 278 277
311 314 317 314 310 304 308 310 311 313 313 315 317 316 313 313 313 313 311 312 311 310 310 310 308 303 301 298 296 294 293 291 289 286 283 281 280 279 278 278 278 278 276 275
312 313 313 314 314 312 312 310 310 310 313 313 314 313 313 313 313 313 313 312 312 311 310 310 308 305 302 298 296 294 292 291 287 284 282 280 279 278 278 277 277 276 275 274
310 313 313 314 314 313 312 312 311 310 310 312 312 312 312 312 312 312 312 311 310 310 309 309 307 307 302 298 295 293 291 289 285 282 281 279 278 278 277 277 275 274 274 273
310 313 313 314 313 312 312 311 312 312 312 312 312 310 310 310 311 311 311 310 310 309 308 307 306 304 300 296 294 291 290 287 283 281 280 278 277 276 276 275 274 274 273 272
311 313 314 315 314 314 315 314 313 312 313 313 314 313 313 313 312 312 312 311 310 310 308 305 305 302 299 296 292 290 288 284 281 279 278 276 275 275 274 274 273 272 272 272
314 312 314 317 316 317 315 313 313 313 313 314 313 312 312 313 313 311 311 311 310 309 307 305 303 303 298 295 291 288 285 281 279 278 276 275 274 274 273 272 272 272 271 271
313 314 316 317 317 315 314 313 313 314 314 313 312 312 312 311 310 309 310 309 308 308 307 307 306 304 297 292 289 285 282 278 278 277 275 273 273 272 272 271 271 270 270 270
312 312 315 316 318 319 314 312 311 311 313 311 310 310 310 310 310 310 309 307 305 305 304 303 298 295 292 289 285 281 279 278 278 276 274 273 273 272 271 271 270 270 269 269
313 312 314 315 317 316 313 311 309 315 315 311 309 309 309 309 309 309 305 305 304 301 295 292 291 290 289 285 281 280 278 278 277 275 273 272 272 272 271 270 269 269 268 268
315 316 315 314 315 317 312 312 313 312 312 312 311 310 310 309 309 307 307 306 300 296 290 289 287 286 284 281 280 280 278 277 274 273 271 270 270 270 269 269 268 267 267 267
316 314 313 314 315 312 311 312 312 312 312 311 310 310 310 310 308 306 306 304 297 296 289 286 286 283 280 280 280 280 278 273 272 271 269 268 268 268 268 267 267 267 267 269
301 304 310 308 310 309 310 309 309 311 309 308 309 309 310 310 308 305 302 301 295 291 288 285 283 281 280 279 280 279 273 272 270 269 267 266 266 265 266 266 267 268 269 269
297 297 300 300 298 303 304 306 304 305 303 303 304 305 307 307 307 306 305 303 298 292 288 284 282 281 280 279 279 274 271 271 270 268 267 266 266 266 266 267 267 268 268 269
294 295 296 297 298 299 300 297 296 297 297 297 299 300 303 305 305 305 304 303 302 298 288 284 282 281 279 278 275 272 270 270 270 269 268 267 266 267 266 266 265 266 267 267

GFSCGP_925_thetae_006.txt.gz
Theta_e
315 314 315 315 316 316 316 316 316 316 316 315 315 315 314 313 313 313 313 313 313 310 310 312 310 309 307 304 301 299 297 296 296 295 294 293 293 293 292 291 291 291 290 289
315 316 315 315 314 315 315 314 315 315 315 314 314 315 314 313 314 314 313 313 313 310 310 306 307 308 306 303 300 299 297 296 296 295 293 293 292 292 292 291 290 289 289 289
314 315 315 315 315 315 315 314 314 314 314 313 313 314 313 313 313 313 312 312 310 309 309 305 304 305 304 301 299 298 297 296 295 294 293 293 293 292 291 291 290 289 289 288
314 314 315 314 314 313 314 314 315 315 315 316 314 317 313 313 312 311 311 311 309 307 309 305 303 303 301 300 299 297 297 296 295 294 293 293 292 290 291 291 290 289 289 288
313 313 313 314 314 313 314 312 314 315 316 315 315 314 313 312 312 311 310 311 310 309 307 304 303 303 301 300 298 297 297 296 295 294 293 292 291 291 291 290 290 289 288 287
311 309 311 313 310 311 310 312 312 312 312 314 312 313 312 312 312 312 310 309 308 308 305 304 303 303 301 300 298 297 296 295 294 293 292 292 291 291 291 290 289 288 287 287
312 310 310 310 312 309 310 314 315 316 316 316 312 312 314 314 310 310 309 308 307 307 304 302 300 299 299 298 297 297 296 295 294 293 292 291 291 291 291 290 289 287 287 286
313 313 311 308 311 314 310 313 317 316 314 313 311 313 313 312 311 310 309 308 308 306 305 303 301 299 299 298 297 296 295 294 294 292 292 291 290 290 290 290 289 288 287 286
312 312 307 308 310 311 312 312 313 314 307 313 313 312 312 312 311 309 308 308 307 306 305 304 302 300 299 298 296 295 295 294 293 292 291 290 290 290 290 289 288 287 286 285
312 312 310 305 305 307 309 308 313 314 311 311 311 311 313 313 313 310 310 308 307 305 305 303 302 300 299 298 297 295 295 294 293 292 290 290 289 289 289 288 287 286 285 284
311 312 310 305 306 309 306 308 309 310 315 312 312 313 311 310 311 310 309 310 309 307 304 302 301 302 300 299 297 295 295 294 293 292 290 289 289 288 287 287 286 285 285 284
311 314 314 311 309 307 308 309 310 311 311 309 312 313 310 311 308 307 308 309 308 307 306 304 302 300 299 298 296 295 294 293 293 291 290 289 288 287 286 285 284 283 283 282
311 312 316 313 312 306 306 308 309 310 310 312 313 312 310 311 309 308 308 308 307 306 306 305 302 299 298 297 296 294 293 293 292 291 289 287 286 285 284 283 282 281 281 281
312 313 315 316 314 312 311 308 307 309 311 311 311 310 310 310 310 310 310 309 306 305 306 304 303 300 298 297 296 294 293 293 292 290 287 285 283 282 282 281 281 280 280 279
314 313 312 313 313 312 312 311 310 310 310 310 310 310 310 310 309 310 310 308 307 306 306 303 302 301 299 296 296 295 293 292 291 288 286 283 281 281 281 280 279 279 278 278
313 315 312 313 311 311 311 310 310 311 311 311 311 311 310 309 309 309 309 309 308 308 308 306 301 298 297 295 296 294 293 291 290 286 283 282 280 280 279 279 278 277 277 277
310 312 313 316 313 312 314 313 313 313 312 312 312 312 311 310 310 310 310 310 310 309 308 304 301 299 296 296 295 292 292 290 287 284 282 280 279 279 278 277 276 276 276 275
316 314 314 317 315 317 313 312 312 313 313 312 312 312 312 312 311 311 310 309 309 309 308 305 299 298 299 300 295 293 290 287 284 282 280 278 278 277 276 275 275 274 274 274
314 316 317 317 318 315 314 313 312 313 313 312 312 312 312 311 310 311 311 310 309 308 307 306 300 300 301 297 293 290 286 284 282 280 279 277 277 276 275 274 274 274 274 273
313 314 317 318 319 320 315 312 310 311 314 311 311 312 311 311 312 312 310 308 303 302 301 300 299 299 296 292 290 286 283 281 281 280 278 277 276 275 274 274 273 274 273 273
313 314 316 317 318 317 314 311 309 313 314 311 311 310 310 309 309 308 304 302 301 300 300 297 295 293 291 289 287 284 281 281 281 279 277 275 275 274 274 273 273 272 272 272
313 313 314 314 314 315 307 308 312 310 305 304 304 305 305 307 307 306 304 301 298 298 295 293 288 287 288 287 284 282 281 280 279 277 275 274 273 273 272 272 271 271 271 270
303 300 299 301 305 305 301 298 297 302 300 300 301 300 301 302 303 303 302 302 300 297 291 288 286 284 285 285 283 281 280 279 277 274 273 271 271 271 271 270 270 269 269 270
293 295 297 296 302 295 292 295 298 296 295 294 295 295 298 299 300 299 299 300 299 292 292 286 283 282 281 282 282 282 279 277 274 272 270 269 269 268 268 269 269 269 269 270
290 289 290 290 290 292 293 294 293 293 292 292 293 294 295 296 297 298 300 300 299 295 288 286 285 286 285 281 281 281 278 275 272 271 269 269 268 267 267 268 269 270 270 271
289 290 290 290 291 290 291 290 291 288 287 287 290 291 290 292 293 294 295 294 294 294 293 285 285 286 284 281 280 278 276 274 272 271 269 268 268 268 268 269 269 270 270 271

GFSCGP_925_thetae_009.txt.gz
Theta_e
311 310 311 311 312 311 311 311 311 313 313 314 314 313 313 312 310 309 309 310 311 310 308 309 309 309 307 305 303 301 300 299 298 297 297 296 296 295 294 294 293 292 292 291
313 312 311 311 311 312 312 312 311 312 310 311 311 313 312 310 312 312 311 311 311 311 307 305 306 306 305 303 301 299 299 299 298 297 296 295 295 294 294 293 292 291 291 291
312 313 313 313 313 313 312 312 312 312 311 310 310 311 312 311 311 311 312 311 311 311 306 304 301 303 303 300 299 299 299 298 298 297 296 295 294 293 292 292 291 291 290 290
311 312 311 311 312 312 313 311 311 312 312 313 311 314 311 311 311 310 311 310 309 304 304 303 301 300 301 300 299 299 298 298 297 296 295 294 293 292 291 291 291 291 290 289
311 312 310 312 312 310 312 312 312 313 313 312 314 313 314 310 310 310 310 309 309 305 303 303 302 303 301 300 298 298 298 297 296 296 295 293 292 292 292 291 291 290 289 289
308 308 311 311 309 310 310 311 311 310 308 313 311 311 311 309 310 310 310 308 309 308 304 303 303 302 300 299 298 297 296 296 296 295 294 294 292 291 292 291 290 290 289 289
308 308 308 309 311 308 310 310 311 311 312 314 309 310 312 311 310 309 310 309 308 304 303 301 299 299 298 297 297 296 296 295 295 295 294 294 292 292 292 291 290 289 289 288
309 310 308 307 310 309 308 310 312 310 312 313 308 311 311 309 309 307 307 308 307 304 303 301 299 299 298 297 296 296 295 295 294 294 293 293 292 292 292 291 290 290 289 289
308 310 308 306 308 309 309 311 310 312 297 308 312 310 308 309 308 307 307 306 305 304 302 301 298 298 297 297 297 296 295 295 294 293 293 292 292 291 291 290 290 290 290 289
310 310 309 306 306 307 308 307 311 310 309 308 312 309 311 310 311 310 307 305 304 304 303 301 299 298 298 298 297 297 296 295 294 293 293 292 292 292 291 290 290 289 289 288
308 310 311 305 306 308 306 308 308 309 310 313 313 312 308 310 309 309 306 305 304 304 302 302 301 300 299 298 297 296 295 295 294 293 292 291 291 291 290 290 289 289 288 287
310 311 312 310 305 305 307 309 309 311 311 308 312 313 312 308 309 306 309 309 307 306 304 301 300 300 298 297 296 296 295 294 294 293 291 291 290 290 289 289 289 288 288 286
312 313 317 315 312 305 307 306 308 308 309 312 314 314 312 311 311 309 305 303 304 304 303 302 300 298 299 298 296 295 295 294 293 293 291 290 289 289 288 288 288 287 286 285
314 312 316 318 315 312 312 310 308 310 312 313 313 313 311 310 310 309 309 309 308 306 303 303 304 301 298 298 297 295 294 294 293 292 290 289 288 288 287 286 286 286 285 284
314 314 314 314 314 314 314 314 313 313 312 313 313 311 309 309 309 309 309 308 308 304 303 303 303 301 299 297 297 296 295 293 292 290 289 288 287 286 285 284 285 285 284 282
313 317 316 316 314 313 315 314 314 314 314 313 312 311 310 311 311 310 310 310 309 308 307 305 301 300 298 297 298 296 294 292 292 290 288 287 285 284 283 283 284 283 282 281
315 313 317 319 316 315 316 315 315 314 312 312 313 311 310 310 310 311 311 310 309 308 307 305 302 300 297 297 298 295 294 292 290 289 287 285 283 281 281 282 281 279 278 278
312 313 313 318 317 318 313 310 312 313 312 312 312 312 311 311 311 311 310 310 310 310 308 302 300 299 299 302 299 297 294 290 289 287 285 282 281 280 279 279 278 277 277 277
312 314 316 317 318 315 314 310 311 312 312 310 311 311 311 310 310 310 308 305 306 306 306 304 302 302 301 301 300 294 289 288 287 285 283 281 281 279 278 277 277 276 275 275
310 312 314 314 316 315 313 310 309 311 315 300 301 302 302 305 308 307 304 301 301 300 300 297 297 299 299 299 296 290 287 286 285 285 283 281 280 279 277 277 276 275 275 275
305 309 313 315 315 313 304 297 303 315 301 297 298 298 297 300 301 300 299 299 298 297 297 298 296 292 291 292 290 287 285 285 285 284 282 280 279 278 277 276 275 274 274 273
300 301 303 302 308 310 298 298 293 294 296 296 294 294 294 295 296 297 298 297 296 296 297 297 290 291 291 290 288 285 283 284 284 282 280 278 277 276 275 275 273 273 273 272
295 294 294 296 296 293 295 291 293 296 294 292 292 292 294 294 295 295 296 297 297 297 296 297 290 288 289 288 288 285 284 283 282 279 277 276 275 275 274 273 272 272 272 271
289 290 291 290 290 289 289 291 291 290 290 290 290 288 290 292 293 291 291 293 293 293 293 295 295 292 292 291 287 286 285 283 281 277 275 274 273 272 272 272 271 271 271 271
289 289 287 288 288 288 289 290 288 288 287 285 284 286 286 285 285 286 286 287 289 291 292 293 292 292 292 293 289 287 284 281 278 276 274 273 272 271 271 271 271 271 271 272
289 289 288 287 288 287 287 286 286 282 281 281 282 281 281 281 281 281 283 283 284 285 287 290 292 290 292 292 289 286 282 279 277 275 273 272 271 271 270 270 271 272 272 273

GFSCGP_925_thetae_015.txt.gz
Theta_e
309 308 309 310 309 310 308 307 308 308 308 311 310 311 311 311 310 310 306 309 309 309 310 309 309 309 308 306 305 304 302 301 300 299 298 299 298 298 299 299 298 297 295 294
310 308 309 308 308 309 309 310 310 310 310 307 308 309 309 308 309 311 311 310 309 308 308 307 306 306 307 308 305 303 302 300 299 299 298 298 297 297 298 298 298 297 295 293
310 310 309 308 308 310 308 309 310 310 309 306 306 310 309 307 308 309 309 309 309 309 308 308 302 303 306 305 305 303 302 301 300 299 298 298 297 296 296 296 297 296 295 293
308 308 309 309 309 309 310 308 309 309 309 311 309 312 309 308 308 307 308 309 308 308 307 306 304 300 304 306 304 302 301 300 299 299 298 297 297 296 295 295 297 296 295 293
307 309 309 309 310 308 310 309 308 308 307 309 310 308 311 308 308 307 308 307 308 306 306 306 303 302 305 305 303 302 300 299 298 298 298 297 297 297 297 295 295 295 295 294
307 305 307 308 307 306 308 310 308 305 307 311 310 310 312 308 309 309 308 307 307 307 306 302 301 302 301 302 301 300 299 298 298 298 298 297 296 296 295 294 293 293 294 293
305 306 306 307 309 307 308 308 310 309 310 312 307 309 313 310 307 307 309 307 304 303 302 302 301 299 297 296 297 297 297 296 297 297 297 297 297 296 296 295 293 292 292 292
307 313 306 305 307 307 307 308 311 309 315 316 306 310 314 308 307 306 304 304 302 302 300 300 301 298 297 296 296 296 296 296 296 296 296 296 296 296 295 294 293 293 293 292
307 310 306 305 306 307 306 308 308 311 304 309 311 310 310 307 306 307 306 303 303 300 299 299 300 298 298 297 295 296 295 296 296 296 295 295 295 295 294 294 293 293 293 292
310 311 310 306 305 305 306 306 309 307 313 312 310 311 312 310 311 308 306 305 304 302 301 302 299 298 299 299 299 298 297 297 298 296 295 295 294 294 294 294 294 293 293 292
307 312 316 311 307 311 306 307 307 307 311 315 316 315 313 312 308 306 305 304 306 304 303 302 301 300 300 300 300 300 298 297 297 297 296 294 294 293 293 293 293 293 292 292
310 313 318 316 307 305 307 308 308 312 313 311 313 315 313 312 309 303 307 309 308 303 301 301 301 301 302 302 300 299 298 297 297 296 294 294 293 293 293 292 292 292 292 291
315 317 319 319 313 311 314 315 313 313 312 313 313 313 311 311 311 311 309 306 304 304 306 304 300 299 299 301 301 300 299 300 298 295 294 293 292 292 292 292 291 290 290 290
314 317 319 320 318 313 314 312 312 315 316 315 314 313 312 312 312 311 311 308 306 304 301 299 299 298 298 299 299 299 298 298 299 296 294 293 292 292 292 291 289 289 289 289
311 315 314 313 312 312 313 314 314 316 316 315 315 317 315 313 311 307 304 303 300 300 299 298 298 297 296 297 298 299 298 297 298 297 294 292 293 292 290 290 289 288 288 287
304 306 307 307 305 306 309 308 310 313 311 311 309 308 301 297 295 293 297 294 294 294 296 296 296 296 295 296 296 296 296 295 295 295 294 294 292 290 290 289 288 287 286 286
301 303 301 303 301 299 300 300 302 305 306 305 306 299 295 294 293 292 294 292 293 294 295 295 295 295 294 295 294 295 293 292 292 292 293 293 292 291 289 288 287 285 284 284
297 297 292 296 292 293 296 298 298 300 299 297 296 295 293 292 291 291 294 291 293 293 294 295 295 294 294 294 293 292 290 291 290 290 291 292 291 289 287 286 285 284 283 283
295 297 292 294 288 297 300 294 292 293 297 295 294 293 291 290 289 290 290 290 291 291 293 294 291 291 292 292 291 290 290 289 289 289 288 289 289 288 286 284 283 282 282 281
293 296 299 286 293 296 296 291 291 290 296 294 292 292 291 289 288 287 289 289 290 290 291 288 288 289 290 290 290 290 289 289 288 288 287 288 288 287 285 283 282 282 281 280
281 278 283 281 288 290 290 289 289 291 291 288 289 290 288 288 287 288 288 288 289 289 286 286 285 286 287 288 288 290 290 290 289 290 287 286 287 285 284 283 282 280 280 279
286 280 280 278 280 288 289 288 287 287 289 292 291 289 288 288 287 286 286 286 284 284 283 283 283 284 283 283 285 286 288 289 289 290 287 284 284 283 282 281 280 279 278 277
285 287 284 287 286 290 288 288 289 290 290 289 288 287 287 286 284 285 284 283 283 282 282 281 282 280 280 281 280 281 281 283 288 287 286 284 282 281 281 280 278 277 277 277
288 288 289 287 288 288 289 288 287 287 287 287 287 285 284 283 283 283 282 281 281 280 279 280 278 278 277 277 277 277 278 280 279 283 284 282 281 279 279 278 278 277 276 277
288 287 287 288 288 288 288 288 288 287 286 285 284 282 281 281 281 280 280 279 278 278 278 277 276 275 274 274 274 274 274 275 275 277 282 282 279 278 277 277 277 277 277 278
289 288 288 288 288 288 288 288 286 285 284 282 280 280 280 279 279 278 277 277 277 276 275 274 273 272 271 271 271 270 270 271 272 274 277 281 280 278 277 277 276 278 278 277